Hourly Weather Tirana

Today, 10 July, Friday

Time Temperature Precipitation Wind Pressure Humidity
00:00 +23°C° 0 mm 1 mps 754 mmHg 62%
01:00 +23°C° 0 mm 1 mps 754 mmHg 62%
02:00 +23°C° 0 mm 1 mps 754 mmHg 60%
03:00 +23°C° 0 mm 1 mps 754 mmHg 59%
04:00 +22°C° 0 mm 1 mps 754 mmHg 57%
05:00 +24°C° 0 mm 1 mps 754 mmHg 53%
06:00 +26°C° 0 mm 1 mps 754 mmHg 48%
07:00 +28°C° 0 mm 1 mps 754 mmHg 43%
08:00 +30°C° 0 mm 1 mps 754 mmHg 39%
09:00 +33°C° 0 mm 1 mps 754 mmHg 35%
10:00 +36°C° 0 mm 2 mps 754 mmHg 30%
11:00 +36°C° 0 mm 3 mps 754 mmHg 30%
12:00 +36°C° 0 mm 3 mps 753 mmHg 31%
13:00 +36°C° 0 mm 4 mps 753 mmHg 31%
14:00 +35°C° 0 mm 4 mps 753 mmHg 32%
15:00 +35°C° 0 mm 4 mps 753 mmHg 34%
16:00 +34°C° 0 mm 5 mps 753 mmHg 35%
17:00 +32°C° 0 mm 4 mps 752 mmHg 42%
18:00 +29°C° 0 mm 3 mps 752 mmHg 49%
19:00 +27°C° 0 mm 2 mps 752 mmHg 55%
20:00 +26°C° 0 mm 1 mps 753 mmHg 57%
21:00 +25°C° 0 mm 1 mps 753 mmHg 59%
22:00 +25°C° 0 mm 1 mps 753 mmHg 61%
23:00 +24°C° 0 mm 1 mps 753 mmHg 61%

Tomorrow, 11 July, Saturday

Time Temperature Precipitation Wind Pressure Humidity
00:00 +24°C° 0 mm 1 mps 753 mmHg 62%
01:00 +24°C° 0 mm 1 mps 753 mmHg 62%
02:00 +24°C° 0 mm 1 mps 753 mmHg 63%
03:00 +24°C° 0 mm 1 mps 753 mmHg 64%
04:00 +23°C° 0 mm 1 mps 753 mmHg 66%
05:00 +25°C° 0 mm 1 mps 753 mmHg 60%
06:00 +27°C° 0 mm 1 mps 753 mmHg 55%
07:00 +29°C° 0 mm 1 mps 752 mmHg 50%
08:00 +31°C° 0 mm 1 mps 752 mmHg 46%
09:00 +32°C° 0 mm 2 mps 752 mmHg 42%
10:00 +35°C° 0 mm 2 mps 752 mmHg 37%
11:00 +35°C° 0 mm 3 mps 752 mmHg 36%
12:00 +35°C° 0 mm 4 mps 752 mmHg 35%
13:00 +36°C° 0 mm 4 mps 751 mmHg 34%
14:00 +35°C° 0 mm 4 mps 751 mmHg 34%
15:00 +35°C° 0 mm 4 mps 751 mmHg 34%
16:00 +35°C° 0 mm 4 mps 751 mmHg 34%
17:00 +31°C° 0 mm 3 mps 751 mmHg 40%
18:00 +29°C° 0 mm 2 mps 751 mmHg 46%
19:00 +27°C° 0 mm 1 mps 751 mmHg 52%
20:00 +26°C° 0 mm 1 mps 751 mmHg 54%
21:00 +26°C° 0 mm 1 mps 751 mmHg 56%
22:00 +23°C° 0 mm 0 mps 752 mmHg 58%
23:00 +22°C° 0 mm 0 mps 751 mmHg 59%

Day after tomorrow, 12 July, Sunday

Time Temperature Precipitation Wind Pressure Humidity
00:00 +24°C° 0 mm 1 mps 751 mmHg 61%
01:00 +23°C° 0 mm 1 mps 751 mmHg 63%
02:00 +23°C° 0 mm 1 mps 751 mmHg 63%
03:00 +23°C° 0 mm 1 mps 751 mmHg 64%
04:00 +23°C° 0 mm 1 mps 751 mmHg 64%
05:00 +25°C° 0 mm 1 mps 751 mmHg 58%
06:00 +27°C° 0 mm 1 mps 751 mmHg 53%
07:00 +29°C° 0 mm 1 mps 751 mmHg 47%
08:00 +31°C° 0 mm 1 mps 752 mmHg 42%
09:00 +32°C° 0 mm 2 mps 752 mmHg 38%
10:00 +35°C° 0 mm 3 mps 752 mmHg 34%
11:00 +35°C° 0 mm 4 mps 752 mmHg 35%
12:00 +35°C° 0 mm 6 mps 752 mmHg 36%
13:00 +35°C° 0 mm 7 mps 752 mmHg 38%
14:00 +35°C° 0 mm 7 mps 752 mmHg 40%
15:00 +34°C° 0 mm 6 mps 752 mmHg 43%
16:00 +33°C° 0 mm 6 mps 752 mmHg 46%
17:00 +30°C° 0 mm 6 mps 752 mmHg 53%
18:00 +29°C° 0 mm 6 mps 752 mmHg 59%
19:00 +27°C° 0 mm 5 mps 752 mmHg 66%
20:00 +26°C° 0 mm 5 mps 752 mmHg 72%
21:00 +25°C° 0 mm 5 mps 753 mmHg 78%
22:00 +23°C° 0 mm 4 mps 753 mmHg 84%
23:00 +22°C° 0 mm 4 mps 753 mmHg 84%

13 July, Monday

Time Temperature Precipitation Wind Pressure Humidity
00:00 +22°C° 0 mm 4 mps 753 mmHg 83%
01:00 +22°C° 0 mm 3 mps 753 mmHg 83%
02:00 +21°C° 0 mm 3 mps 752 mmHg 83%
03:00 +21°C° 0 mm 3 mps 752 mmHg 83%
04:00 +21°C° 0 mm 3 mps 752 mmHg 82%
05:00 +22°C° 0 mm 4 mps 752 mmHg 74%
06:00 +25°C° 0 mm 4 mps 753 mmHg 65%
07:00 +27°C° 0 mm 4 mps 753 mmHg 56%
08:00 +28°C° 0 mm 5 mps 753 mmHg 52%
09:00 +30°C° 0 mm 5 mps 753 mmHg 47%
10:00 +33°C° 0 mm 6 mps 753 mmHg 42%
11:00 +33°C° 0 mm 7 mps 753 mmHg 39%
12:00 +34°C° 0 mm 7 mps 752 mmHg 37%
13:00 +35°C° 0 mm 8 mps 752 mmHg 34%
14:00 +34°C° 0 mm 8 mps 752 mmHg 35%
15:00 +34°C° 0 mm 8 mps 751 mmHg 36%
16:00 +34°C° 0 mm 8 mps 751 mmHg 37%
17:00 +32°C° 0 mm 8 mps 751 mmHg 42%
18:00 +29°C° 0 mm 8 mps 751 mmHg 47%
19:00 +27°C° 0 mm 8 mps 751 mmHg 52%
20:00 +26°C° 0 mm 7 mps 752 mmHg 55%
21:00 +23°C° 0 mm 6 mps 752 mmHg 58%
22:00 +22°C° 0 mm 5 mps 752 mmHg 61%
23:00 +21°C° 0 mm 5 mps 752 mmHg 59%

14 July, Tuesday

Time Temperature Precipitation Wind Pressure Humidity
00:00 +21°C° 0 mm 5 mps 752 mmHg 57%
01:00 +20°C° 0 mm 5 mps 752 mmHg 55%
02:00 +19°C° 0 mm 5 mps 752 mmHg 55%
03:00 +19°C° 0 mm 5 mps 752 mmHg 55%
04:00 +17°C° 0 mm 5 mps 752 mmHg 54%
05:00 +20°C° 0 mm 4 mps 752 mmHg 50%
06:00 +22°C° 0 mm 4 mps 752 mmHg 46%
07:00 +25°C° 0 mm 3 mps 752 mmHg 42%
08:00 +27°C° 0 mm 4 mps 752 mmHg 38%
09:00 +29°C° 0 mm 4 mps 752 mmHg 35%
10:00 +32°C° 0 mm 4 mps 752 mmHg 31%
11:00 +33°C° 0 mm 5 mps 752 mmHg 31%
12:00 +33°C° 0 mm 5 mps 752 mmHg 31%
13:00 +34°C° 0 mm 6 mps 752 mmHg 31%
14:00 +33°C° 0 mm 6 mps 752 mmHg 33%
15:00 +32°C° 0 mm 7 mps 751 mmHg 35%
16:00 +30°C° 0 mm 7 mps 751 mmHg 37%
17:00 +28°C° 0 mm 6 mps 751 mmHg 45%
18:00 +26°C° 0 mm 6 mps 751 mmHg 53%
19:00 +23°C° 0 mm 5 mps 752 mmHg 61%
20:00 +22°C° 0 mm 4 mps 752 mmHg 65%
21:00 +21°C° 0 mm 3 mps 752 mmHg 70%
22:00 +20°C° 0 mm 2 mps 753 mmHg 74%
23:00 +21°C° 0 mm 1 mps 753 mmHg 74%

15 July, Wednesday

Time Temperature Precipitation Wind Pressure Humidity
00:00 +21°C° 0 mm 1 mps 753 mmHg 74%
01:00 +21°C° 0 mm 1 mps 753 mmHg 74%
02:00 +20°C° 0 mm 1 mps 753 mmHg 75%
03:00 +20°C° 0 mm 1 mps 753 mmHg 76%
04:00 +20°C° 0 mm 1 mps 753 mmHg 77%
05:00 +22°C° 0 mm 1 mps 753 mmHg 70%
06:00 +24°C° 0 mm 1 mps 753 mmHg 63%
07:00 +26°C° 0 mm 1 mps 753 mmHg 56%
08:00 +27°C° 0 mm 1 mps 753 mmHg 51%
09:00 +29°C° 0 mm 2 mps 753 mmHg 45%
10:00 +30°C° 0 mm 2 mps 753 mmHg 39%
11:00 +31°C° 0 mm 3 mps 753 mmHg 38%
12:00 +32°C° 0 mm 4 mps 753 mmHg 36%
13:00 +32°C° 0 mm 4 mps 753 mmHg 35%
14:00 +32°C° 0 mm 4 mps 753 mmHg 35%
15:00 +30°C° 0 mm 4 mps 752 mmHg 36%
16:00 +30°C° 0 mm 3 mps 752 mmHg 36%
17:00 +28°C° 0 mm 3 mps 752 mmHg 44%
18:00 +26°C° 0 mm 2 mps 752 mmHg 51%
19:00 +23°C° 0 mm 1 mps 752 mmHg 58%
20:00 +22°C° 0 mm 1 mps 753 mmHg 63%
21:00 +21°C° 0 mm 1 mps 753 mmHg 67%
22:00 +20°C° 0 mm 1 mps 753 mmHg 71%
23:00 +20°C° 0 mm 1 mps 753 mmHg 69%
Show more